Time,TemperatureF,DewpointF,PressureIn,WindDirection,WindDirectionDegrees,WindSpeedMPH,WindSpeedGustMPH,Humidity,HourlyPrecipIn,Conditions,Clouds,dailyrainin,SoftwareType,DateUTC
2013-01-13 00:03:00,45.0,-99.9,30.14,SE,130,3.0,4.0,-999,-99.99,,,-99.99,,2013-01-13 05:03:00,
2013-01-13 00:12:00,45.0,-99.9,30.14,SE,136,4.0,4.0,-999,-99.99,,,-99.99,,2013-01-13 05:12:00,
2013-01-13 00:23:00,44.0,-99.9,30.14,SE,138,3.0,5.0,-999,-99.99,,,-99.99,,2013-01-13 05:23:00,
2013-01-13 00:33:00,44.0,-99.9,30.13,SE,137,4.0,5.0,-999,-99.99,,,-99.99,,2013-01-13 05:33:00,
2013-01-13 00:42:00,44.0,-99.9,30.13,SE,136,5.0,6.0,-999,-99.99,,,-99.99,,2013-01-13 05:42:00,
2013-01-13 00:53:00,44.0,-99.9,30.13,SE,143,4.0,6.0,-999,-99.99,,,-99.99,,2013-01-13 05:53:00,
2013-01-13 01:03:00,44.0,-99.9,30.13,SE,142,4.0,6.0,-999,-99.99,,,-99.99,,2013-01-13 06:03:00,
2013-01-13 01:12:00,44.0,-99.9,30.14,SE,134,5.0,7.0,-999,-99.99,,,-99.99,,2013-01-13 06:12:00,
2013-01-13 01:22:00,44.0,-99.9,30.14,SE,133,4.0,7.0,-999,-99.99,,,-99.99,,2013-01-13 06:22:00,
2013-01-13 01:33:00,44.0,-99.9,30.14,SE,143,5.0,8.0,-999,-99.99,,,-99.99,,2013-01-13 06:33:00,
2013-01-13 01:43:00,44.0,-99.9,30.14,SSE,153,5.0,7.0,-999,-99.99,,,-99.99,,2013-01-13 06:43:00,
2013-01-13 01:53:00,44.0,-99.9,30.14,SE,142,5.0,8.0,-999,-99.99,,,-99.99,,2013-01-13 06:53:00,
2013-01-13 02:02:00,44.0,-99.9,30.15,SE,144,5.0,7.0,-999,-99.99,,,-99.99,,2013-01-13 07:02:00,
2013-01-13 02:12:00,44.0,-99.9,30.15,SSE,149,4.0,7.0,-999,-99.99,,,-99.99,,2013-01-13 07:12:00,
2013-01-13 02:22:00,44.0,-99.9,30.15,SSE,152,2.0,7.0,-999,-99.99,,,-99.99,,2013-01-13 07:22:00,
2013-01-13 02:33:00,44.0,-99.9,30.15,SSE,148,3.0,8.0,-999,-99.99,,,-99.99,,2013-01-13 07:33:00,
2013-01-13 02:42:00,44.0,-99.9,30.15,SE,145,4.0,7.0,-999,-99.99,,,-99.99,,2013-01-13 07:42:00,
2013-01-13 02:53:00,44.0,-99.9,30.15,SSE,155,3.0,7.0,-999,-99.99,,,-99.99,,2013-01-13 07:53:00,
2013-01-13 03:02:00,44.0,-99.9,30.15,South,170,5.0,7.0,-999,-99.99,,,-99.99,,2013-01-13 08:02:00,
2013-01-13 03:12:00,44.0,-99.9,30.14,SSE,168,4.0,7.0,-999,-99.99,,,-99.99,,2013-01-13 08:12:00,
2013-01-13 03:22:00,44.0,-99.9,30.15,SSE,165,3.0,7.0,-999,-99.99,,,-99.99,,2013-01-13 08:22:00,
2013-01-13 03:33:00,44.0,-99.9,30.15,South,171,3.0,6.0,-999,-99.99,,,-99.99,,2013-01-13 08:33:00,
2013-01-13 03:42:00,44.0,-99.9,30.15,SSE,165,5.0,6.0,-999,-99.99,,,-99.99,,2013-01-13 08:42:00,
2013-01-13 03:53:00,45.0,-99.9,30.14,South,182,3.0,5.0,-999,-99.99,,,-99.99,,2013-01-13 08:53:00,
2013-01-13 04:02:00,45.0,-99.9,30.14,South,169,4.0,5.0,-999,-99.99,,,-99.99,,2013-01-13 09:02:00,
2013-01-13 04:12:00,44.0,-99.9,30.14,SSE,155,3.0,6.0,-999,-99.99,,,-99.99,,2013-01-13 09:12:00,
2013-01-13 04:22:00,44.0,-99.9,30.13,South,171,3.0,7.0,-999,-99.99,,,-99.99,,2013-01-13 09:22:00,
2013-01-13 04:32:00,44.0,-99.9,30.13,SSE,157,3.0,6.0,-999,-99.99,,,-99.99,,2013-01-13 09:32:00,
2013-01-13 04:43:00,44.0,-99.9,30.13,SSE,164,3.0,6.0,-999,-99.99,,,-99.99,,2013-01-13 09:43:00,
2013-01-13 04:53:00,44.0,-99.9,30.13,South,169,4.0,7.0,-999,-99.99,,,-99.99,,2013-01-13 09:53:00,
2013-01-13 05:03:00,44.0,-99.9,30.14,South,189,5.0,6.0,-999,-99.99,,,-99.99,,2013-01-13 10:03:00,
2013-01-13 05:12:00,44.0,-99.9,30.14,South,180,4.0,7.0,-999,-99.99,,,-99.99,,2013-01-13 10:12:00,
2013-01-13 05:22:00,44.0,-99.9,30.14,SSE,168,5.0,6.0,-999,-99.99,,,-99.99,,2013-01-13 10:22:00,
2013-01-13 05:33:00,44.0,-99.9,30.14,SSE,155,3.0,8.0,-999,-99.99,,,-99.99,,2013-01-13 10:33:00,
2013-01-13 05:42:00,44.0,-99.9,30.14,SSE,153,3.0,7.0,-999,-99.99,,,-99.99,,2013-01-13 10:42:00,
2013-01-13 05:53:00,44.0,-99.9,30.14,SSE,159,4.0,7.0,-999,-99.99,,,-99.99,,2013-01-13 10:53:00,
2013-01-13 06:02:00,44.0,-99.9,30.13,SSE,157,3.0,8.0,-999,-99.99,,,-99.99,,2013-01-13 11:02:00,
2013-01-13 06:12:00,44.0,-99.9,30.13,SE,144,4.0,7.0,-999,-99.99,,,-99.99,,2013-01-13 11:12:00,
2013-01-13 06:22:00,44.0,-99.9,30.14,SSE,160,4.0,7.0,-999,-99.99,,,-99.99,,2013-01-13 11:22:00,
2013-01-13 06:33:00,44.0,-99.9,30.13,SE,145,4.0,8.0,-999,-99.99,,,-99.99,,2013-01-13 11:33:00,
2013-01-13 06:43:00,44.0,-99.9,30.13,SE,143,4.0,9.0,-999,-99.99,,,-99.99,,2013-01-13 11:43:00,
2013-01-13 06:53:00,44.0,-99.9,30.13,SSE,149,5.0,9.0,-999,-99.99,,,-99.99,,2013-01-13 11:53:00,
2013-01-13 07:03:00,44.0,-99.9,30.13,SSE,156,6.0,8.0,-999,-99.99,,,-99.99,,2013-01-13 12:03:00,
2013-01-13 07:12:00,44.0,-99.9,30.13,SSE,153,5.0,11.0,-999,-99.99,,,-99.99,,2013-01-13 12:12:00,
2013-01-13 07:22:00,44.0,-99.9,30.14,SSE,153,5.0,9.0,-999,-99.99,,,-99.99,,2013-01-13 12:22:00,
2013-01-13 07:33:00,44.0,-99.9,30.14,SSE,156,6.0,11.0,-999,-99.99,,,-99.99,,2013-01-13 12:33:00,
2013-01-13 07:42:00,44.0,-99.9,30.15,SSE,166,6.0,8.0,-999,-99.99,,,-99.99,,2013-01-13 12:42:00,
2013-01-13 07:53:00,44.0,-99.9,30.15,SSE,165,6.0,10.0,-999,-99.99,,,-99.99,,2013-01-13 12:53:00,
2013-01-13 08:03:00,44.0,-99.9,30.14,SE,144,5.0,11.0,-999,-99.99,,,-99.99,,2013-01-13 13:03:00,
2013-01-13 08:12:00,44.0,-99.9,30.15,SSE,158,3.0,9.0,-999,-99.99,,,-99.99,,2013-01-13 13:12:00,
2013-01-13 08:22:00,45.0,-99.9,30.16,South,170,4.0,9.0,-999,-99.99,,,-99.99,,2013-01-13 13:22:00,
2013-01-13 08:33:00,45.0,-99.9,30.16,SSE,164,4.0,10.0,-999,-99.99,,,-99.99,,2013-01-13 13:33:00,
2013-01-13 08:43:00,45.0,-99.9,30.16,SSE,164,4.0,10.0,-999,-99.99,,,-99.99,,2013-01-13 13:43:00,
2013-01-13 08:53:00,45.0,-99.9,30.17,South,185,3.0,9.0,-999,-99.99,,,-99.99,,2013-01-13 13:53:00,
2013-01-13 09:03:00,45.0,-99.9,30.17,SSE,157,5.0,11.0,-999,-99.99,,,-99.99,,2013-01-13 14:03:00,
2013-01-13 09:13:00,45.0,-99.9,30.16,SSE,164,6.0,11.0,-999,-99.99,,,-99.99,,2013-01-13 14:13:00,
2013-01-13 09:23:00,45.0,-99.9,30.16,SSE,166,7.0,12.0,-999,-99.99,,,-99.99,,2013-01-13 14:23:00,
2013-01-13 09:33:00,45.0,-99.9,30.16,South,179,9.0,12.0,-999,-99.99,,,-99.99,,2013-01-13 14:33:00,
2013-01-13 09:43:00,45.0,-99.9,30.16,South,176,8.0,14.0,-999,-99.99,,,-99.99,,2013-01-13 14:43:00,
2013-01-13 09:53:00,45.0,-99.9,30.16,South,179,10.0,12.0,-999,-99.99,,,-99.99,,2013-01-13 14:53:00,
2013-01-13 10:03:00,45.0,-99.9,30.16,South,175,9.0,13.0,-999,-99.99,,,-99.99,,2013-01-13 15:03:00,
2013-01-13 10:13:00,45.0,-99.9,30.17,South,180,7.0,13.0,-999,-99.99,,,-99.99,,2013-01-13 15:13:00,
2013-01-13 10:23:00,45.0,-99.9,30.17,South,175,6.0,12.0,-999,-99.99,,,-99.99,,2013-01-13 15:23:00,
2013-01-13 10:33:00,45.0,-99.9,30.17,South,186,8.0,13.0,-999,-99.99,,,-99.99,,2013-01-13 15:33:00,
2013-01-13 10:43:00,45.0,-99.9,30.17,SSW,196,7.0,11.0,-999,-99.99,,,-99.99,,2013-01-13 15:43:00,
2013-01-13 10:53:00,45.0,-99.9,30.16,South,179,8.0,12.0,-999,-99.99,,,-99.99,,2013-01-13 15:53:00,
2013-01-13 11:04:00,45.0,-99.9,30.16,South,187,9.0,13.0,-999,-99.99,,,-99.99,,2013-01-13 16:04:00,
2013-01-13 11:13:00,45.0,-99.9,30.16,SSW,192,7.0,12.0,-999,-99.99,,,-99.99,,2013-01-13 16:13:00,
2013-01-13 11:23:00,46.0,-99.9,30.16,SSW,194,8.0,12.0,-999,-99.99,,,-99.99,,2013-01-13 16:23:00,
2013-01-13 11:33:00,46.0,-99.9,30.16,SSW,205,5.0,12.0,-999,-99.99,,,-99.99,,2013-01-13 16:33:00,
2013-01-13 11:43:00,46.0,-99.9,30.16,SSW,202,5.0,10.0,-999,-99.99,,,-99.99,,2013-01-13 16:43:00,
2013-01-13 11:53:00,46.0,-99.9,30.16,SSW,213,7.0,11.0,-999,-99.99,,,-99.99,,2013-01-13 16:53:00,
2013-01-13 12:03:00,46.0,-99.9,30.16,SSW,209,5.0,11.0,-999,-99.99,,,-99.99,,2013-01-13 17:03:00,
2013-01-13 12:13:00,47.0,-99.9,30.16,SSW,199,7.0,11.0,-999,-99.99,,,-99.99,,2013-01-13 17:13:00,
2013-01-13 12:22:00,47.0,-99.9,30.16,SW,222,6.0,10.0,-999,-99.99,,,-99.99,,2013-01-13 17:22:00,
2013-01-13 12:33:00,47.0,-99.9,30.15,SSW,204,7.0,12.0,-999,-99.99,,,-99.99,,2013-01-13 17:33:00,
2013-01-13 12:43:00,47.0,-99.9,30.15,SSW,208,8.0,12.0,-999,-99.99,,,-99.99,,2013-01-13 17:43:00,
2013-01-13 12:53:00,48.0,-99.9,30.15,SSW,205,7.0,10.0,-999,-99.99,,,-99.99,,2013-01-13 17:53:00,
2013-01-13 13:03:00,48.0,-99.9,30.14,SSW,206,5.0,11.0,-999,-99.99,,,-99.99,,2013-01-13 18:03:00,
2013-01-13 13:12:00,49.0,-99.9,30.14,SW,216,4.0,9.0,-999,-99.99,,,-99.99,,2013-01-13 18:12:00,
2013-01-13 13:23:00,50.0,-99.9,30.13,South,191,5.0,8.0,-999,-99.99,,,-99.99,,2013-01-13 18:23:00,
2013-01-13 13:33:00,50.0,-99.9,30.13,SSW,198,5.0,11.0,-999,-99.99,,,-99.99,,2013-01-13 18:33:00,
2013-01-13 13:43:00,49.0,-99.9,30.12,South,182,4.0,11.0,-999,-99.99,,,-99.99,,2013-01-13 18:43:00,
2013-01-13 13:53:00,49.0,-99.9,30.12,SSW,193,3.0,9.0,-999,-99.99,,,-99.99,,2013-01-13 18:53:00,
2013-01-13 14:03:00,49.0,-99.9,30.12,South,189,6.0,9.0,-999,-99.99,,,-99.99,,2013-01-13 19:03:00,
2013-01-13 14:12:00,49.0,-99.9,30.12,SSW,192,5.0,9.0,-999,-99.99,,,-99.99,,2013-01-13 19:12:00,
2013-01-13 14:23:00,49.0,-99.9,30.12,South,183,5.0,9.0,-999,-99.99,,,-99.99,,2013-01-13 19:23:00,
2013-01-13 14:33:00,49.0,-99.9,30.12,South,184,6.0,9.0,-999,-99.99,,,-99.99,,2013-01-13 19:33:00,
2013-01-13 14:43:00,50.0,-99.9,30.12,South,181,4.0,9.0,-999,-99.99,,,-99.99,,2013-01-13 19:43:00,
2013-01-13 14:53:00,50.0,-99.9,30.12,SSW,192,4.0,10.0,-999,-99.99,,,-99.99,,2013-01-13 19:53:00,
2013-01-13 15:03:00,50.0,-99.9,30.12,South,178,4.0,8.0,-999,-99.99,,,-99.99,,2013-01-13 20:03:00,
2013-01-13 15:12:00,49.0,-99.9,30.12,South,177,8.0,11.0,-999,-99.99,,,-99.99,,2013-01-13 20:12:00,
2013-01-13 15:23:00,49.0,-99.9,30.12,South,180,5.0,9.0,-999,-99.99,,,-99.99,,2013-01-13 20:23:00,
2013-01-13 15:33:00,49.0,-99.9,30.12,South,177,7.0,10.0,-999,-99.99,,,-99.99,,2013-01-13 20:33:00,
2013-01-13 15:43:00,49.0,-99.9,30.12,South,189,6.0,10.0,-999,-99.99,,,-99.99,,2013-01-13 20:43:00,
2013-01-13 15:53:00,49.0,-99.9,30.12,South,186,6.0,10.0,-999,-99.99,,,-99.99,,2013-01-13 20:53:00,
2013-01-13 16:03:00,49.0,-99.9,30.12,South,175,7.0,11.0,-999,-99.99,,,-99.99,,2013-01-13 21:03:00,
2013-01-13 16:13:00,49.0,-99.9,30.11,South,177,5.0,10.0,-999,-99.99,,,-99.99,,2013-01-13 21:13:00,
2013-01-13 16:23:00,49.0,-99.9,30.11,South,174,8.0,11.0,-999,-99.99,,,-99.99,,2013-01-13 21:23:00,
2013-01-13 16:33:00,49.0,-99.9,30.11,South,179,7.0,11.0,-999,-99.99,,,-99.99,,2013-01-13 21:33:00,
2013-01-13 16:43:00,49.0,-99.9,30.11,South,183,9.0,11.0,-999,-99.99,,,-99.99,,2013-01-13 21:43:00,
2013-01-13 16:53:00,49.0,-99.9,30.10,South,178,8.0,12.0,-999,-99.99,,,-99.99,,2013-01-13 21:53:00,
2013-01-13 17:03:00,49.0,-99.9,30.10,South,179,6.0,13.0,-999,-99.99,,,-99.99,,2013-01-13 22:03:00,
2013-01-13 17:13:00,48.0,-99.9,30.10,South,181,6.0,13.0,-999,-99.99,,,-99.99,,2013-01-13 22:13:00,
2013-01-13 17:23:00,48.0,-99.9,30.10,South,185,7.0,12.0,-999,-99.99,,,-99.99,,2013-01-13 22:23:00,
2013-01-13 17:33:00,48.0,-99.9,30.09,South,176,6.0,12.0,-999,-99.99,,,-99.99,,2013-01-13 22:33:00,
2013-01-13 17:43:00,48.0,-99.9,30.09,South,185,7.0,13.0,-999,-99.99,,,-99.99,,2013-01-13 22:43:00,
2013-01-13 17:53:00,48.0,-99.9,30.10,South,185,8.0,11.0,-999,-99.99,,,-99.99,,2013-01-13 22:53:00,
2013-01-13 18:03:00,48.0,-99.9,30.09,South,187,6.0,12.0,-999,-99.99,,,-99.99,,2013-01-13 23:03:00,
2013-01-13 18:12:00,48.0,-99.9,30.09,South,182,6.0,11.0,-999,-99.99,,,-99.99,,2013-01-13 23:12:00,
2013-01-13 18:23:00,48.0,-99.9,30.09,South,186,8.0,12.0,-999,-99.99,,,-99.99,,2013-01-13 23:23:00,
2013-01-13 18:33:00,48.0,-99.9,30.09,South,184,8.0,13.0,-999,-99.99,,,-99.99,,2013-01-13 23:33:00,
2013-01-13 18:43:00,48.0,-99.9,30.09,South,185,8.0,15.0,-999,-99.99,,,-99.99,,2013-01-13 23:43:00,
2013-01-13 18:53:00,48.0,-99.9,30.07,South,177,9.0,13.0,-999,-99.99,,,-99.99,,2013-01-13 23:53:00,
2013-01-13 19:03:00,49.0,-99.9,30.07,South,182,8.0,12.0,-999,-99.99,,,-99.99,,2013-01-14 00:03:00,
2013-01-13 19:13:00,49.0,-99.9,30.07,SSW,193,8.0,13.0,-999,-99.99,,,-99.99,,2013-01-14 00:13:00,
2013-01-13 19:23:00,49.0,-99.9,30.08,South,191,6.0,15.0,-999,-99.99,,,-99.99,,2013-01-14 00:23:00,
2013-01-13 19:33:00,49.0,-99.9,30.08,South,191,6.0,15.0,-999,-99.99,,,-99.99,,2013-01-14 00:33:00,
2013-01-13 19:43:00,49.0,-99.9,30.08,South,191,6.0,15.0,-999,-99.99,,,-99.99,,2013-01-14 00:43:00,
2013-01-13 19:53:00,49.0,-99.9,30.08,South,191,6.0,15.0,-999,-99.99,,,-99.99,,2013-01-14 00:53:00,